Time,TemperatureF,DewpointF,PressureIn,WindDirection,WindDirectionDegrees,WindSpeedMPH,WindSpeedGustMPH,Humidity,HourlyPrecipIn,Conditions,Clouds,dailyrainin,SolarRadiationWatts/m^2,SoftwareType,DateUTC
2013-08-05 00:02:00,75.5,72.0,30.04,NNE,25,0.0,1.0,89,0.00,,,0.00,0,weatherlink.com 1.10,2013-08-05 05:02:00,
2013-08-05 00:17:00,75.6,71.0,30.04,NNE,25,0.0,2.0,86,0.00,,,0.00,0,weatherlink.com 1.10,2013-08-05 05:17:00,
2013-08-05 00:32:00,75.8,71.0,30.04,ENE,73,2.0,4.0,84,0.00,,,0.00,0,weatherlink.com 1.10,2013-08-05 05:32:00,
2013-08-05 00:47:00,75.9,70.0,30.04,East,97,1.0,4.0,83,0.00,,,0.00,0,weatherlink.com 1.10,2013-08-05 05:47:00,
2013-08-05 01:02:00,75.9,70.0,30.04,ENE,67,1.0,4.0,81,0.00,,,0.00,0,weatherlink.com 1.10,2013-08-05 06:02:00,
2013-08-05 01:17:00,75.8,70.0,30.04,East,82,0.0,4.0,81,0.00,,,0.00,0,weatherlink.com 1.10,2013-08-05 06:17:00,
2013-08-05 01:32:00,75.6,70.0,30.03,ESE,123,2.0,3.0,82,0.00,,,0.00,0,weatherlink.com 1.10,2013-08-05 06:32:00,
2013-08-05 01:47:00,75.3,70.0,30.03,SE,140,2.0,4.0,83,0.00,,,0.00,0,weatherlink.com 1.10,2013-08-05 06:47:00,
2013-08-05 02:02:00,75.1,70.0,30.03,NE,54,0.0,4.0,83,0.00,,,0.00,0,weatherlink.com 1.10,2013-08-05 07:02:00,
2013-08-05 02:17:00,75.0,70.0,30.03,SE,126,2.0,2.0,83,0.00,,,0.00,0,weatherlink.com 1.10,2013-08-05 07:17:00,
2013-08-05 02:32:00,74.8,69.0,30.03,ESE,108,0.0,1.0,83,0.00,,,0.00,0,weatherlink.com 1.10,2013-08-05 07:32:00,
2013-08-05 02:47:00,74.6,70.0,30.04,ESE,105,1.0,3.0,84,0.00,,,0.00,0,weatherlink.com 1.10,2013-08-05 07:47:00,
2013-08-05 03:02:00,74.6,70.0,30.03,ESE,105,0.0,1.0,84,0.00,,,0.00,0,weatherlink.com 1.10,2013-08-05 08:02:00,
2013-08-05 03:17:00,74.3,69.0,30.03,ESE,105,0.0,1.0,84,0.00,,,0.00,0,weatherlink.com 1.10,2013-08-05 08:17:00,
2013-08-05 04:18:00,74.0,69.0,30.04,ESE,105,0.0,3.0,83,0.00,,,0.00,0,weatherlink.com 1.10,2013-08-05 09:18:00,
2013-08-05 04:33:00,74.0,69.0,30.03,ENE,76,3.0,4.0,83,0.00,,,0.00,0,weatherlink.com 1.10,2013-08-05 09:33:00,
2013-08-05 04:48:00,74.0,69.0,30.04,East,97,0.0,4.0,83,0.00,,,0.00,0,weatherlink.com 1.10,2013-08-05 09:48:00,
2013-08-05 05:03:00,73.9,69.0,30.03,ESE,111,2.0,6.0,83,0.00,,,0.00,0,weatherlink.com 1.10,2013-08-05 10:03:00,
2013-08-05 05:18:00,73.7,68.0,30.04,East,83,2.0,5.0,83,0.00,,,0.00,0,weatherlink.com 1.10,2013-08-05 10:18:00,
2013-08-05 05:33:00,73.5,68.0,30.04,SE,133,1.0,6.0,83,0.00,,,0.00,0,weatherlink.com 1.10,2013-08-05 10:33:00,
2013-08-05 05:48:00,73.2,68.0,30.03,ESE,103,3.0,5.0,84,0.00,,,0.00,0,weatherlink.com 1.10,2013-08-05 10:48:00,
2013-08-05 06:02:00,72.8,68.0,30.02,SSE,160,1.0,7.0,85,0.00,,,0.00,0,weatherlink.com 1.10,2013-08-05 11:02:00,
2013-08-05 06:18:00,72.5,68.0,30.03,SSE,148,4.0,7.0,86,0.01,,,0.01,5,weatherlink.com 1.10,2013-08-05 11:18:00,
2013-08-05 06:33:00,72.5,68.0,30.03,SE,143,4.0,8.0,86,0.01,,,0.01,11,weatherlink.com 1.10,2013-08-05 11:33:00,
2013-08-05 06:48:00,72.5,69.0,30.04,SE,126,4.0,5.0,87,0.01,,,0.01,18,weatherlink.com 1.10,2013-08-05 11:48:00,
2013-08-05 07:03:00,72.4,69.0,30.04,SE,133,0.0,4.0,88,0.01,,,0.01,26,weatherlink.com 1.10,2013-08-05 12:03:00,
2013-08-05 07:18:00,72.4,69.0,30.04,SE,143,2.0,4.0,88,0.00,,,0.01,32,weatherlink.com 1.10,2013-08-05 12:18:00,
2013-08-05 07:33:00,72.4,69.0,30.04,SSE,147,2.0,5.0,88,0.00,,,0.01,56,weatherlink.com 1.10,2013-08-05 12:33:00,
2013-08-05 07:48:00,72.4,69.0,30.03,SSE,157,2.0,6.0,89,0.00,,,0.01,81,weatherlink.com 1.10,2013-08-05 12:48:00,
2013-08-05 08:18:00,73.0,69.0,30.04,SE,137,5.0,7.0,88,0.00,,,0.01,158,weatherlink.com 1.10,2013-08-05 13:18:00,
2013-08-05 08:33:00,73.5,70.0,30.03,SSE,156,4.0,7.0,87,0.00,,,0.01,186,weatherlink.com 1.10,2013-08-05 13:33:00,
2013-08-05 08:48:00,74.3,70.0,30.03,SSE,167,2.0,5.0,87,0.00,,,0.01,209,weatherlink.com 1.10,2013-08-05 13:48:00,
2013-08-05 09:03:00,74.7,70.0,30.03,SSE,147,3.0,7.0,86,0.00,,,0.01,195,weatherlink.com 1.10,2013-08-05 14:03:00,
2013-08-05 09:18:00,74.9,71.0,30.03,SSE,158,3.0,8.0,86,0.00,,,0.01,241,weatherlink.com 1.10,2013-08-05 14:18:00,
2013-08-05 09:33:00,76.3,72.0,30.03,SSE,156,4.0,10.0,85,0.00,,,0.01,545,weatherlink.com 1.10,2013-08-05 14:33:00,
2013-08-05 09:48:00,77.2,71.0,30.03,SSE,149,5.0,8.0,82,0.00,,,0.01,345,weatherlink.com 1.10,2013-08-05 14:48:00,
2013-08-05 10:34:00,80.3,73.0,30.02,SSE,155,4.0,8.0,77,0.00,,,0.01,492,weatherlink.com 1.10,2013-08-05 15:34:00,
2013-08-05 10:49:00,80.5,72.0,30.02,SE,127,3.0,8.0,75,0.00,,,0.01,295,weatherlink.com 1.10,2013-08-05 15:49:00,
2013-08-05 11:04:00,80.7,73.0,30.02,SE,133,4.0,7.0,76,0.00,,,0.01,515,weatherlink.com 1.10,2013-08-05 16:04:00,
2013-08-05 11:34:00,81.6,73.0,30.02,SE,133,4.0,7.0,75,0.00,,,0.01,204,weatherlink.com 1.10,2013-08-05 16:34:00,
2013-08-05 11:48:00,81.0,73.0,30.02,South,178,2.0,6.0,76,0.00,,,0.01,134,weatherlink.com 1.10,2013-08-05 16:48:00,
2013-08-05 12:18:00,79.9,73.0,30.05,WNW,288,8.0,13.0,80,0.00,,,0.01,12,weatherlink.com 1.10,2013-08-05 17:18:00,
2013-08-05 12:34:00,77.9,73.0,30.05,NW,313,3.0,7.0,85,0.01,,,0.02,12,weatherlink.com 1.10,2013-08-05 17:34:00,
2013-08-05 12:48:00,75.6,73.0,30.01,NE,36,4.0,8.0,90,0.30,,,0.31,30,weatherlink.com 1.10,2013-08-05 17:48:00,
2013-08-05 13:04:00,74.9,73.0,30.01,East,91,3.0,5.0,93,0.42,,,0.43,72,weatherlink.com 1.10,2013-08-05 18:04:00,
2013-08-05 13:19:00,74.9,73.0,30.00,ESE,104,2.0,3.0,94,0.43,,,0.44,114,weatherlink.com 1.10,2013-08-05 18:19:00,
2013-08-05 13:34:00,75.4,74.0,29.99,ENE,77,1.0,3.0,94,0.42,,,0.44,207,weatherlink.com 1.10,2013-08-05 18:34:00,
2013-08-05 13:49:00,76.2,75.0,29.98,SE,143,2.0,7.0,95,0.12,,,0.44,471,weatherlink.com 1.10,2013-08-05 18:49:00,
2013-08-05 14:04:00,76.9,75.0,29.98,ESE,114,1.0,5.0,93,0.01,,,0.44,292,weatherlink.com 1.10,2013-08-05 19:04:00,
2013-08-05 14:34:00,78.4,76.0,29.96,SSE,152,2.0,5.0,91,0.00,,,0.44,422,weatherlink.com 1.10,2013-08-05 19:34:00,
2013-08-05 14:49:00,79.5,76.0,29.97,NE,49,2.0,7.0,90,0.00,,,0.44,374,weatherlink.com 1.10,2013-08-05 19:49:00,
2013-08-05 15:04:00,78.4,75.0,29.98,ENE,67,1.0,13.0,88,0.00,,,0.44,158,weatherlink.com 1.10,2013-08-05 20:04:00,
2013-08-05 15:19:00,77.3,74.0,29.98,ENE,75,2.0,6.0,90,0.06,,,0.50,339,weatherlink.com 1.10,2013-08-05 20:19:00,
2013-08-05 15:34:00,77.4,75.0,29.96,ENE,58,2.0,8.0,92,0.06,,,0.50,339,weatherlink.com 1.10,2013-08-05 20:34:00,
2013-08-05 15:49:00,77.5,75.0,29.95,ESE,105,2.0,9.0,91,0.06,,,0.50,279,weatherlink.com 1.10,2013-08-05 20:49:00,
2013-08-05 16:34:00,78.0,75.0,29.94,SE,141,2.0,6.0,91,0.00,,,0.50,200,weatherlink.com 1.10,2013-08-05 21:34:00,
2013-08-05 16:49:00,78.2,75.0,29.94,SE,136,4.0,5.0,91,0.00,,,0.50,160,weatherlink.com 1.10,2013-08-05 21:49:00,
2013-08-05 17:04:00,78.3,75.0,29.94,SSE,147,2.0,7.0,90,0.00,,,0.50,162,weatherlink.com 1.10,2013-08-05 22:04:00,
2013-08-05 17:34:00,79.0,76.0,29.94,SE,132,1.0,4.0,89,0.00,,,0.50,120,weatherlink.com 1.10,2013-08-05 22:34:00,
2013-08-05 18:04:00,79.3,76.0,29.91,SE,139,3.0,7.0,88,0.00,,,0.50,135,weatherlink.com 1.10,2013-08-05 23:04:00,
2013-08-05 18:34:00,79.3,75.0,29.92,SSE,155,4.0,5.0,87,0.00,,,0.50,62,weatherlink.com 1.10,2013-08-05 23:34:00,
2013-08-05 18:49:00,79.1,75.0,29.92,SSE,154,4.0,6.0,87,0.00,,,0.50,53,weatherlink.com 1.10,2013-08-05 23:49:00,
2013-08-05 19:19:00,79.1,75.0,29.92,SE,145,0.0,4.0,88,0.00,,,0.50,23,weatherlink.com 1.10,2013-08-06 00:19:00,
2013-08-05 19:34:00,79.0,76.0,29.92,SE,145,1.0,3.0,89,0.00,,,0.50,21,weatherlink.com 1.10,2013-08-06 00:34:00,
2013-08-05 19:49:00,79.0,76.0,29.93,SSE,165,1.0,4.0,90,0.00,,,0.50,7,weatherlink.com 1.10,2013-08-06 00:49:00,
2013-08-05 20:04:00,79.3,76.0,29.93,SSE,153,0.0,2.0,90,0.00,,,0.50,0,weatherlink.com 1.10,2013-08-06 01:04:00,
2013-08-05 20:19:00,79.4,76.0,29.93,SSE,155,1.0,4.0,90,0.00,,,0.50,0,weatherlink.com 1.10,2013-08-06 01:19:00,
2013-08-05 20:34:00,79.3,76.0,29.93,SSW,197,1.0,4.0,90,0.00,,,0.50,0,weatherlink.com 1.10,2013-08-06 01:34:00,
2013-08-05 20:49:00,79.2,76.0,29.93,South,170,1.0,4.0,89,0.00,,,0.50,0,weatherlink.com 1.10,2013-08-06 01:49:00,
2013-08-05 21:05:00,79.1,75.0,29.92,SSW,205,2.0,8.0,87,0.00,,,0.50,0,weatherlink.com 1.10,2013-08-06 02:05:00,
2013-08-05 21:19:00,78.9,75.0,29.91,SSE,162,4.0,7.0,87,0.00,,,0.50,0,weatherlink.com 1.10,2013-08-06 02:19:00,
2013-08-05 21:34:00,78.6,74.0,29.92,South,174,2.0,4.0,86,0.00,,,0.50,0,weatherlink.com 1.10,2013-08-06 02:34:00,
2013-08-05 21:49:00,78.2,74.0,29.93,South,187,2.0,4.0,86,0.00,,,0.50,0,weatherlink.com 1.10,2013-08-06 02:49:00,
2013-08-05 22:04:00,77.9,74.0,29.93,SSW,203,3.0,5.0,86,0.00,,,0.50,0,weatherlink.com 1.10,2013-08-06 03:04:00,
2013-08-05 22:19:00,77.5,73.0,29.93,SSW,203,1.0,3.0,87,0.00,,,0.50,0,weatherlink.com 1.10,2013-08-06 03:19:00,
2013-08-05 22:34:00,77.0,73.0,29.93,South,182,1.0,4.0,88,0.00,,,0.50,0,weatherlink.com 1.10,2013-08-06 03:34:00,
2013-08-05 22:49:00,76.6,73.0,29.92,South,176,1.0,4.0,88,0.00,,,0.50,0,weatherlink.com 1.10,2013-08-06 03:49:00,
2013-08-05 23:04:00,76.3,73.0,29.92,SSW,198,1.0,5.0,89,0.00,,,0.50,0,weatherlink.com 1.10,2013-08-06 04:04:00,
2013-08-05 23:19:00,76.1,73.0,29.92,SSW,198,3.0,3.0,89,0.00,,,0.50,0,weatherlink.com 1.10,2013-08-06 04:19:00,
2013-08-05 23:34:00,76.0,73.0,29.91,SSW,201,5.0,6.0,89,0.00,,,0.50,0,weatherlink.com 1.10,2013-08-06 04:34:00,
2013-08-05 23:49:00,75.8,73.0,29.91,South,182,5.0,7.0,90,0.00,,,0.50,0,weatherlink.com 1.10,2013-08-06 04:49:00,